Two Harbors, MN

8:13 PM CST on February 24, 2017 (GMT -0600)
Helgeson

Weather History for KTWM - June, 2014

Change the Weather History Date:

Monday, June 9, 2014

  Actual Average Record
Temperature  
Mean Temperature 52 °F -  
Max Temperature 66 °F 65 °F 89 °F (1954)
Min Temperature 39 °F 43 °F 34 °F (1971)
Degree Days  
Heating Degree Days 12    
Growing Degree Days 2 (Base 50)    
Moisture  
Dew Point 41 °F    
Average Humidity 71    
Maximum Humidity 87    
Minimum Humidity 46    
Precipitation  
Precipitation 0.00 in - - ()
Sea Level Pressure  
Sea Level Pressure 30.02 in    
Wind  
Wind Speed 1 mph (ESE)    
Max Wind Speed 7 mph    
Max Gust Speed -    
Visibility 10 miles    
Events      
Averages and records for this station are not official NWS values.
T = Trace of Precipitation, MM = Missing Value Source: NWS Daily Summary

Daily Weather History Graph

Daily Weather History Graph

Search for Another Location

Airport or City:

Trip Planner

Search our weather history database for the weather conditions in past years. The results will help you decide how hot, cold, wet, or windy it might be!

Date:

Astronomy

Jun. 09, 2014 Rise Set
Actual Time 5:12 AM CDT 9:00 PM CDT
Civil Twilight 4:32 AM CDT 9:40 PM CDT
Nautical Twilight 3:39 AM CDT 10:34 PM CDT
Astronomical Twilight 2:21 AM CDT 11:52 PM CDT
Moon 5:09 PM CDT (6/9) 2:54 AM CDT (6/9)
Length of Visible Light 17h 07m
Length of Day
15h 48m
Waxing Gibbous, 85% of the Moon is Illuminated
Jun 9
Waxing Gibbous
Jun 12
Full
Jun 19
Last Quarter
Jun 27
New
Jul 5
First Quarter

Hourly Weather History & Observations

Time (CDT) Temp. Windchill Dew Point Humidity Pressure Visibility Wind Dir Wind Speed Gust Speed Precip Events Conditions
12:14 AM 44.6 °F - 39.2 °F 81% 30.07 in 10.0 mi Calm Calm - N/A   Clear
12:34 AM 42.8 °F - 37.4 °F 81% 30.07 in 10.0 mi Calm Calm - N/A   Clear
12:54 AM 42.8 °F - 37.4 °F 81% 30.06 in 10.0 mi Calm Calm - N/A   Clear
1:14 AM 42.8 °F - 37.4 °F 81% 30.06 in 10.0 mi Calm Calm - N/A   Clear
1:34 AM 42.8 °F - 37.4 °F 81% 30.06 in 10.0 mi Calm Calm - N/A   Clear
1:54 AM 41.0 °F - 35.6 °F 81% 30.05 in 10.0 mi Calm Calm - N/A   Clear
2:14 AM 41.0 °F - 35.6 °F 81% 30.05 in 10.0 mi Calm Calm - N/A   Clear
2:34 AM 41.0 °F - 35.6 °F 81% 30.04 in 10.0 mi Calm Calm - N/A   Clear
2:54 AM 41.0 °F - 35.6 °F 81% 30.04 in 10.0 mi Calm Calm - N/A   Clear
3:14 AM 39.2 °F - 35.6 °F 87% 30.04 in 10.0 mi Calm Calm - N/A   Clear
3:34 AM 39.2 °F - 35.6 °F 87% 30.04 in 10.0 mi Calm Calm - N/A   Clear
3:54 AM 39.2 °F - 35.6 °F 87% 30.05 in 10.0 mi Calm Calm - N/A   Clear
4:14 AM 41.0 °F - 35.6 °F 81% 30.04 in 10.0 mi Calm Calm - N/A   Clear
4:34 AM 41.0 °F - 35.6 °F 81% 30.04 in 10.0 mi Calm Calm - N/A   Clear
4:54 AM 42.8 °F - 37.4 °F 81% 30.03 in 10.0 mi Calm Calm - N/A   Clear
5:14 AM 42.8 °F 41.1 °F 37.4 °F 81% 30.04 in 10.0 mi NNW 3.5 mph - N/A   Clear
5:34 AM 42.8 °F - 37.4 °F 81% 30.04 in 10.0 mi Calm Calm - N/A   Clear
5:54 AM 42.8 °F - 37.4 °F 81% 30.04 in 10.0 mi Calm Calm - N/A   Clear
6:14 AM 42.8 °F - 37.4 °F 81% 30.04 in 10.0 mi Calm Calm - N/A   Clear
6:34 AM 44.6 °F - 39.2 °F 81% 30.04 in 10.0 mi Calm Calm - N/A   Clear
6:54 AM 44.6 °F - 41.0 °F 87% 30.04 in 10.0 mi Calm Calm - N/A   Clear
7:15 AM 46.4 °F - 42.8 °F 87% 30.04 in 10.0 mi Calm Calm - N/A   Clear
7:34 AM 48.2 °F - 42.8 °F 82% 30.04 in 10.0 mi Calm Calm - N/A   Clear
7:54 AM 48.2 °F - 42.8 °F 82% 30.04 in 10.0 mi Calm Calm - N/A   Clear
8:15 AM 48.2 °F - 42.8 °F 82% 30.05 in 10.0 mi SSE 3.5 mph - N/A   Clear
8:34 AM 48.2 °F - 39.2 °F 71% 30.05 in 10.0 mi Calm Calm - N/A   Clear
8:54 AM 48.2 °F - 41.0 °F 76% 30.05 in 10.0 mi Calm Calm - N/A   Clear
9:14 AM 50.0 °F - 41.0 °F 71% 30.05 in 10.0 mi Calm Calm - N/A   Clear
9:34 AM 51.8 °F - 42.8 °F 71% 30.03 in 10.0 mi Calm Calm - N/A   Clear
10:14 AM 53.6 °F - 41.0 °F 62% 30.03 in 10.0 mi Calm Calm - N/A   Scattered Clouds
10:34 AM 53.6 °F - 39.2 °F 58% 30.03 in 10.0 mi Calm Calm - N/A   Scattered Clouds
10:54 AM 55.4 °F - 39.2 °F 54% 30.03 in 10.0 mi Calm Calm - N/A   Clear
11:34 AM 57.2 °F - 42.8 °F 59% 30.03 in 10.0 mi Calm Calm - N/A   Clear
11:54 AM 60.8 °F - 44.6 °F 55% 30.02 in 10.0 mi South 4.6 mph - N/A   Clear
12:14 PM 60.8 °F - 44.6 °F 55% 30.02 in 10.0 mi SE 6.9 mph - N/A   Clear
12:34 PM 60.8 °F - 42.8 °F 52% 30.02 in 10.0 mi SE 6.9 mph - N/A   Clear
12:54 PM 60.8 °F - 42.8 °F 52% 30.02 in 10.0 mi SSE 3.5 mph - N/A   Clear
1:14 PM 62.6 °F - 44.6 °F 52% 30.01 in 10.0 mi SSE 4.6 mph - N/A   Clear
1:34 PM 64.4 °F - 44.6 °F 49% 30.00 in 10.0 mi ESE 6.9 mph - N/A   Clear
3:14 PM 62.6 °F - 44.6 °F 52% 29.98 in 10.0 mi SE 3.5 mph - N/A   Mostly Cloudy
3:34 PM 62.6 °F - 44.6 °F 52% 29.98 in 10.0 mi South 3.5 mph - N/A   Overcast
3:54 PM 60.8 °F - 44.6 °F 55% 29.98 in 10.0 mi Calm Calm - N/A   Overcast
4:14 PM 62.6 °F - 46.4 °F 55% 29.97 in 10.0 mi East 4.6 mph - N/A   Mostly Cloudy
4:34 PM 66.2 °F - 46.4 °F 49% 29.97 in 10.0 mi SSE 3.5 mph - N/A   Clear
4:54 PM 66.2 °F - 44.6 °F 46% 29.97 in 10.0 mi SE 5.8 mph - N/A   Clear
5:14 PM 64.4 °F - 46.4 °F 52% 29.97 in 10.0 mi South 4.6 mph - N/A   Clear
5:34 PM 62.6 °F - 44.6 °F 52% 29.97 in 10.0 mi SE 5.8 mph - N/A   Clear
5:54 PM 57.2 °F - 41.0 °F 55% 29.98 in 10.0 mi East 4.6 mph - N/A   Clear
6:14 PM 55.4 °F - 39.2 °F 54% 29.98 in 10.0 mi East 6.9 mph - N/A   Clear
6:34 PM 55.4 °F - 42.8 °F 63% 29.98 in 10.0 mi ENE 6.9 mph - N/A   Scattered Clouds
6:54 PM 55.4 °F - 42.8 °F 63% 29.98 in 10.0 mi NE 4.6 mph - N/A   Scattered Clouds
7:14 PM 57.2 °F - 44.6 °F 63% 29.98 in 10.0 mi NE 4.6 mph - N/A   Mostly Cloudy
7:34 PM 57.2 °F - 44.6 °F 63% 29.97 in 10.0 mi NE 4.6 mph - N/A   Scattered Clouds
7:54 PM 57.2 °F - 44.6 °F 63% 29.98 in 10.0 mi NNE 4.6 mph - N/A   Mostly Cloudy
8:14 PM 57.2 °F - 44.6 °F 63% 29.98 in 10.0 mi NNE 4.6 mph - N/A   Overcast
8:34 PM 55.4 °F - 44.6 °F 67% 29.98 in 10.0 mi NE 3.5 mph - N/A   Mostly Cloudy
8:54 PM 53.6 °F - 44.6 °F 72% 29.98 in 10.0 mi Calm Calm - N/A   Scattered Clouds
9:14 PM 53.6 °F - 44.6 °F 72% 29.98 in 10.0 mi Calm Calm - N/A   Mostly Cloudy
9:34 PM 53.6 °F - 44.6 °F 72% 29.98 in 10.0 mi NNE 3.5 mph - N/A   Scattered Clouds
9:54 PM 51.8 °F - 44.6 °F 76% 29.98 in 10.0 mi Calm Calm - N/A   Clear
10:14 PM 48.2 °F - 44.6 °F 87% 29.99 in 10.0 mi Calm Calm - N/A   Clear
10:34 PM 48.2 °F - 42.8 °F 82% 29.99 in 10.0 mi Calm Calm - N/A   Clear
10:54 PM 46.4 °F - 42.8 °F 87% 29.99 in 10.0 mi Calm Calm - N/A   Clear
11:14 PM 46.4 °F - 41.0 °F 81% 29.99 in 10.0 mi Calm Calm - N/A   Clear
11:34 PM 44.6 °F - 41.0 °F 87% 29.99 in 10.0 mi Calm Calm - N/A   Clear
11:54 PM 44.6 °F - 39.2 °F 81% 29.99 in 10.0 mi Calm Calm - N/A   Clear